Weather History for KLKR - July, 2013

Change the Weather History Date:

Monday, July 15, 2013

  Actual Average (KUZA) Record (KUZA)
Temperature  
Mean Temperature 78 °F -  
Max Temperature 89 °F 90 °F 99 °F (1962)
Min Temperature 68 °F 70 °F 63 °F (1960)
Cooling Degree Days 14    
Growing Degree Days 28 (Base 50)    
Moisture  
Dew Point 73 °F    
Average Humidity 90    
Maximum Humidity 100    
Minimum Humidity 59    
Precipitation  
Precipitation 0.00 in - - ()
Sea Level Pressure  
Sea Level Pressure 30.29 in    
Wind  
Wind Speed 2 mph (NE)    
Max Wind Speed 7 mph    
Max Gust Speed -    
Visibility 6 miles    
Events Rain , Thunderstorm    
Averages and records for this station are not official NWS values.
T = Trace of Precipitation, MM = Missing Value Source: NWS Daily Summary

Daily Weather History Graph

Daily Weather History Graph

Search for Another Location

Airport or City:

Trip Planner

Search our weather history database for the weather conditions in past years. The results will help you decide how hot, cold, wet, or windy it might be!

Date:

Astronomy

Jul. 15, 2013 Rise Set
Actual Time 6:21 AM EDT 8:36 PM EDT
Civil Twilight 5:52 AM EDT 9:05 PM EDT
Nautical Twilight 5:17 AM EDT 9:40 PM EDT
Astronomical Twilight 4:39 AM EDT 10:19 PM EDT
Moon 1:19 PM EDT (7/15) 12:07 AM EDT (7/15)
Length of Visible Light 15h 12m
Length of Day
14h 15m
Waxing Crescent, 45% of the Moon is Illuminated
Jul 15
Waxing Crescent
Jul 15
First Quarter
Jul 22
Full
Jul 29
Last Quarter
Aug 6
New

Hourly Weather History & Observations

Time (EDT) Temp. Heat Index Dew Point Humidity Pressure Visibility Wind Dir Wind Speed Gust Speed Precip Events Conditions
12:15 AM 71.6 °F - 71.6 °F 100% 30.29 in 7.0 mi Calm Calm - N/A   Overcast
12:35 AM 71.6 °F - 71.6 °F 100% 30.28 in 8.0 mi Calm Calm - N/A   Overcast
12:55 AM 71.6 °F - 71.6 °F 100% 30.28 in 5.0 mi Calm Calm - N/A   Mostly Cloudy
1:15 AM 71.6 °F - 71.6 °F 100% 30.28 in 7.0 mi Calm Calm - N/A   Mostly Cloudy
1:35 AM 71.6 °F - 71.6 °F 100% 30.29 in 10.0 mi NE 3.5 mph - N/A   Scattered Clouds
1:55 AM 71.6 °F - 71.6 °F 100% 30.28 in 10.0 mi Calm Calm - N/A   Partly Cloudy
2:15 AM 71.6 °F - 71.6 °F 100% 30.29 in 10.0 mi Calm Calm - N/A   Clear
2:35 AM 69.8 °F - 69.8 °F 100% 30.29 in 6.0 mi Calm Calm - N/A   Clear
2:55 AM 69.8 °F - 69.8 °F 100% 30.29 in 6.0 mi Calm Calm - N/A   Clear
3:15 AM 69.8 °F - 69.8 °F 100% 30.28 in 5.0 mi Calm Calm - N/A   Clear
3:35 AM 69.8 °F - 69.8 °F 100% 30.28 in 5.0 mi Calm Calm - N/A   Scattered Clouds
3:55 AM 69.8 °F - 69.8 °F 100% 30.28 in 5.0 mi ENE 3.5 mph - N/A   Scattered Clouds
4:15 AM 69.8 °F - 69.8 °F 100% 30.28 in 5.0 mi Calm Calm - N/A   Mostly Cloudy
4:35 AM 68.0 °F - 68.0 °F 100% 30.28 in 5.0 mi Calm Calm - N/A   Overcast
4:55 AM 69.8 °F - 69.8 °F 100% 30.29 in 5.0 mi Calm Calm - N/A   Overcast
5:15 AM 71.6 °F - 71.6 °F 100% 30.29 in 5.0 mi Calm Calm - N/A   Overcast
5:35 AM 71.6 °F - 71.6 °F 100% 30.29 in 5.0 mi NE 3.5 mph - N/A   Overcast
5:55 AM 71.6 °F - 71.6 °F 100% 30.30 in 4.0 mi Calm Calm - N/A   Overcast
6:15 AM 71.6 °F - 71.6 °F 100% 30.30 in 4.0 mi Calm Calm - N/A   Overcast
6:35 AM 71.6 °F - 71.6 °F 100% 30.31 in 3.0 mi Calm Calm - N/A   Overcast
6:55 AM 71.6 °F - 71.6 °F 100% 30.31 in 3.0 mi NNE 3.5 mph - N/A   Overcast
7:15 AM 73.4 °F - 73.4 °F 100% 30.31 in 2.5 mi Calm Calm - N/A   Overcast
7:35 AM 73.4 °F - 73.4 °F 100% 30.31 in 3.0 mi Calm Calm - N/A   Overcast
7:55 AM 73.4 °F - 73.4 °F 100% 30.31 in 4.0 mi NE 3.5 mph - N/A   Overcast
8:15 AM 73.4 °F - 73.4 °F 100% 30.32 in 4.0 mi NE 3.5 mph - N/A   Overcast
8:35 AM 75.2 °F - 75.2 °F 100% 30.31 in 5.0 mi NE 4.6 mph - N/A   Overcast
8:55 AM 75.2 °F - 75.2 °F 100% 30.32 in 8.0 mi NE 3.5 mph - N/A   Overcast
9:15 AM 75.2 °F - 75.2 °F 100% 30.32 in 8.0 mi NE 3.5 mph - N/A   Overcast
9:35 AM 77.0 °F - 77.0 °F 100% 30.32 in 3.0 mi NNE 4.6 mph - N/A   Overcast
9:55 AM 78.8 °F - 77.0 °F 94% 30.32 in 5.0 mi ENE 4.6 mph - N/A   Overcast
10:15 AM 78.8 °F - 77.0 °F 94% 30.31 in 10.0 mi ENE 3.5 mph - N/A   Overcast
10:35 AM 80.6 °F 86.2 °F 75.2 °F 84% 30.32 in 5.0 mi ENE 4.6 mph - N/A   Haze
10:55 AM 82.4 °F 89.5 °F 75.2 °F 79% 30.32 in 5.0 mi ENE 4.6 mph - N/A   Haze
11:15 AM 80.6 °F 86.2 °F 75.2 °F 84% 30.33 in 4.0 mi ENE 4.6 mph - N/A   Overcast
11:35 AM 82.4 °F 89.5 °F 75.2 °F 79% 30.33 in 7.0 mi East 3.5 mph - N/A   Overcast
11:55 AM 84.2 °F 92.3 °F 75.2 °F 74% 30.33 in 7.0 mi NE 5.8 mph - N/A   Overcast
12:15 PM 84.2 °F 92.3 °F 75.2 °F 74% 30.33 in 6.0 mi ENE 3.5 mph - N/A   Haze
12:55 PM 84.2 °F 92.3 °F 75.2 °F 74% 30.32 in 4.0 mi NE 4.6 mph - N/A   Haze
1:15 PM 86.0 °F 93.4 °F 73.4 °F 66% 30.31 in 4.0 mi East 4.6 mph - N/A   Haze
1:35 PM 86.0 °F 95.1 °F 75.2 °F 70% 30.30 in 3.0 mi SSE 4.6 mph - N/A   Haze
1:55 PM 86.0 °F 93.4 °F 73.4 °F 66% 30.30 in 4.0 mi Calm Calm - N/A   Haze
2:15 PM 86.0 °F 95.1 °F 75.2 °F 70% 30.29 in 7.0 mi ENE 3.5 mph - N/A   Overcast
2:35 PM 84.2 °F 92.3 °F 75.2 °F 74% 30.28 in 7.0 mi ENE 3.5 mph - N/A   Overcast
2:55 PM 86.0 °F 93.4 °F 73.4 °F 66% 30.28 in 4.0 mi NNE 6.9 mph - N/A   Haze
3:15 PM 86.0 °F 95.1 °F 75.2 °F 70% 30.28 in 9.0 mi NNE 6.9 mph - N/A   Overcast
3:35 PM 86.0 °F 95.1 °F 75.2 °F 70% 30.28 in 10.0 mi Calm Calm - N/A   Overcast
3:55 PM 84.2 °F 92.3 °F 75.2 °F 74% 30.27 in 6.0 mi NE 3.5 mph - N/A   Haze
4:15 PM 87.8 °F 95.6 °F 73.4 °F 62% 30.27 in 7.0 mi NE 6.9 mph - N/A   Overcast
4:35 PM 87.8 °F 95.6 °F 73.4 °F 62% 30.26 in 8.0 mi NE 5.8 mph - N/A   Overcast
4:55 PM 87.8 °F 95.6 °F 73.4 °F 62% 30.26 in 7.0 mi NE 5.8 mph - N/A   Overcast
5:15 PM 87.8 °F 97.6 °F 75.2 °F 66% 30.25 in 5.0 mi Calm Calm - N/A Thunderstorm Haze
5:35 PM 89.6 °F 98.2 °F 73.4 °F 59% 30.25 in 7.0 mi NE 6.9 mph - N/A   Overcast
5:55 PM 86.0 °F 93.4 °F 73.4 °F 66% 30.25 in 7.0 mi East 3.5 mph - N/A Thunderstorm Overcast
6:15 PM 80.6 °F 86.2 °F 75.2 °F 84% 30.26 in 7.0 mi ESE 5.8 mph - N/A Thunderstorm Overcast
6:35 PM 73.4 °F - 73.4 °F 100% 30.26 in 5.0 mi Calm Calm - N/A Rain , Thunderstorm Light Rain
6:55 PM 73.4 °F - 73.4 °F 100% 30.26 in 3.0 mi Calm Calm - N/A Rain Light Rain
7:15 PM 75.2 °F - 75.2 °F 100% 30.26 in 9.0 mi Calm Calm - N/A Rain Light Rain
7:35 PM 75.2 °F - 75.2 °F 100% 30.26 in 5.0 mi Calm Calm - N/A Rain Light Rain
7:55 PM 75.2 °F - 75.2 °F 100% 30.27 in 10.0 mi Calm Calm - N/A Rain Light Rain
8:15 PM 75.2 °F - 75.2 °F 100% 30.27 in 10.0 mi Calm Calm - N/A Rain Light Rain
8:35 PM 75.2 °F - 75.2 °F 100% 30.27 in 7.0 mi Calm Calm - N/A Rain Light Rain
8:55 PM 73.4 °F - 73.4 °F 100% 30.27 in 8.0 mi Calm Calm - N/A Rain Light Rain
9:15 PM 73.4 °F - 73.4 °F 100% 30.27 in 10.0 mi Calm Calm - N/A Rain Light Rain
9:35 PM 73.4 °F - 73.4 °F 100% 30.28 in 10.0 mi Calm Calm - N/A Rain Light Rain
9:55 PM 73.4 °F - 73.4 °F 100% 30.29 in 1.2 mi Calm Calm - N/A Rain Light Rain
10:15 PM 73.4 °F - 73.4 °F 100% 30.29 in 4.0 mi Calm Calm - N/A Rain Light Rain
10:35 PM 73.4 °F - 73.4 °F 100% 30.30 in 7.0 mi Calm Calm - N/A Rain Light Rain
10:55 PM 73.4 °F - 73.4 °F 100% 30.29 in 7.0 mi Calm Calm - N/A Rain Light Rain
11:15 PM 73.4 °F - 73.4 °F 100% 30.30 in 7.0 mi Calm Calm - N/A Rain Light Rain
11:35 PM 73.4 °F - 73.4 °F 100% 30.29 in 8.0 mi Calm Calm - N/A Rain Light Rain
11:55 PM 71.6 °F - 71.6 °F 100% 30.30 in 6.0 mi Calm Calm - N/A Rain Light Rain